| time (UTC) | temp F | wind direction | speed MPH | gust MPH | rain 1hr in | rain 24hr in | rain mn in | humidity % | barometer mb |
| 20260904093600 | 81 | 0 | 0.0 | 0.0 | 0.00 | 0.00 | 0.00 | 84 | 1014.6 |
| 20260904093105 | 81 | 0 | 0.0 | 0.0 | 0.00 | 0.00 | 0.00 | 84 | 1014.5 |
| 20260904092559 | 81 | 0 | 0.0 | 0.0 | 0.00 | 0.00 | 0.00 | 84 | 1014.6 |
| 20260904092059 | 81 | 0 | 0.0 | 0.0 | 0.00 | 0.00 | 0.00 | 84 | 1014.6 |
| 20260904091608 | 81 | 0 | 0.0 | 0.0 | 0.00 | 0.00 | 0.00 | 84 | 1014.5 |
| 20260904091102 | 81 | 0 | 0.0 | 0.0 | 0.00 | 0.00 | 0.00 | 84 | 1014.6 |
| 20260904090600 | 81 | 0 | 0.0 | 0.0 | 0.00 | 0.00 | 0.00 | 84 | 1014.6 |
| 20260904090106 | 81 | 0 | 0.0 | 0.0 | 0.00 | 0.00 | 0.00 | 83 | 1014.7 |
| 20260904085601 | 81 | 0 | 0.0 | 0.0 | 0.00 | 0.00 | 0.00 | 83 | 1014.6 |
| 20260904085059 | 81 | 0 | 0.0 | 0.0 | 0.00 | 0.00 | 0.00 | 83 | 1014.6 |
| 20260904084603 | 81 | 0 | 0.0 | 0.0 | 0.00 | 0.00 | 0.00 | 83 | 1014.6 |
| 20260904084102 | 81 | 0 | 0.0 | 0.0 | 0.00 | 0.00 | 0.00 | 83 | 1014.6 |
| 20260904083602 | 81 | 0 | 0.0 | 0.0 | 0.00 | 0.00 | 0.00 | 82 | 1014.5 |
| 20260904083105 | 81 | 0 | 0.0 | 0.0 | 0.00 | 0.00 | 0.00 | 82 | 1014.6 |
| 20260904082601 | 81 | 0 | 0.0 | 0.0 | 0.00 | 0.00 | 0.00 | 82 | 1014.4 |
| 20260904082100 | 81 | 0 | 0.0 | 0.0 | 0.00 | 0.00 | 0.00 | 82 | 1014.4 |
| 20260904081606 | 81 | 0 | 0.0 | 0.0 | 0.00 | 0.00 | 0.00 | 82 | 1014.5 |
| 20260904081057 | 81 | 0 | 0.0 | 0.0 | 0.00 | 0.00 | 0.00 | 82 | 1014.4 |
| 20260904080600 | 81 | 0 | 0.0 | 0.0 | 0.00 | 0.00 | 0.00 | 82 | 1014.4 |
| 20260904080120 | 81 | 0 | 0.0 | 0.0 | 0.00 | 0.00 | 0.00 | 82 | 1014.4 |
| 20260904075602 | 81 | 0 | 0.0 | 0.0 | 0.00 | 0.00 | 0.00 | 81 | 1014.4 |
| 20260904075059 | 81 | 0 | 0.0 | 0.0 | 0.00 | 0.00 | 0.00 | 81 | 1014.2 |
| 20260904074603 | 81 | 0 | 0.0 | 0.0 | 0.00 | 0.00 | 0.00 | 81 | 1014.4 |
| 20260904074102 | 81 | 0 | 0.0 | 0.0 | 0.00 | 0.00 | 0.00 | 81 | 1014.4 |
| 20260904073559 | 81 | 0 | 0.0 | 0.0 | 0.00 | 0.00 | 0.00 | 81 | 1014.4 |
| 20260904073113 | 82 | 0 | 0.0 | 0.0 | 0.00 | 0.00 | 0.00 | 81 | 1014.4 |
| 20260904072559 | 82 | 0 | 0.0 | 0.0 | 0.00 | 0.00 | 0.00 | 81 | 1014.3 |
| 20260904072057 | 82 | 0 | 0.0 | 0.0 | 0.00 | 0.00 | 0.00 | 81 | 1014.4 |
| 20260904071603 | 82 | 0 | 0.0 | 0.0 | 0.00 | 0.00 | 0.00 | 81 | 1014.4 |
| 20260904071058 | 82 | 0 | 0.0 | 0.0 | 0.00 | 0.00 | 0.00 | 80 | 1014.5 |
| 20260904070557 | 82 | 0 | 0.0 | 0.0 | 0.00 | 0.00 | 0.00 | 80 | 1014.6 |
| 20260904070106 | 82 | 0 | 0.0 | 0.0 | 0.00 | 0.00 | 0.00 | 80 | 1014.5 |
| 20260904065602 | 82 | 0 | 0.0 | 0.0 | 0.00 | 0.00 | 0.00 | 80 | 1014.5 |
| 20260904065100 | 82 | 0 | 0.0 | 0.0 | 0.00 | 0.00 | 0.00 | 80 | 1014.4 |
| 20260904064604 | 82 | 0 | 0.0 | 0.0 | 0.00 | 0.00 | 0.00 | 80 | 1014.6 |
| 20260904064100 | 83 | 0 | 0.0 | 0.0 | 0.00 | 0.00 | 0.00 | 80 | 1014.6 |
| 20260904063605 | 83 | 0 | 0.0 | 0.0 | 0.00 | 0.00 | 0.00 | 80 | 1014.6 |
| 20260904063117 | 83 | 0 | 0.0 | 0.0 | 0.00 | 0.00 | 0.00 | 80 | 1014.7 |
| 20260904062600 | 83 | 0 | 0.0 | 0.0 | 0.00 | 0.00 | 0.00 | 80 | 1014.8 |
| 20260904062059 | 83 | 0 | 0.0 | 0.0 | 0.00 | 0.00 | 0.00 | 80 | 1014.8 |
| 20260904061607 | 83 | 0 | 0.0 | 0.0 | 0.00 | 0.00 | 0.00 | 80 | 1014.9 |
| 20260904061101 | 83 | 0 | 0.0 | 0.0 | 0.00 | 0.00 | 0.00 | 80 | 1014.9 |
| 20260904060601 | 83 | 0 | 0.0 | 0.0 | 0.00 | 0.00 | 0.00 | 80 | 1014.8 |
| 20260904060108 | 83 | 0 | 0.0 | 0.0 | 0.00 | 0.00 | 0.00 | 80 | 1014.9 |
| 20260904055600 | 83 | 0 | 0.0 | 0.0 | 0.00 | 0.00 | 0.00 | 80 | 1015.0 |
| 20260904055100 | 83 | 0 | 0.0 | 0.0 | 0.00 | 0.00 | 0.00 | 80 | 1015.0 |
| 20260904054604 | 83 | 0 | 0.0 | 0.0 | 0.00 | 0.00 | 0.00 | 80 | 1015.0 |
| 20260904054058 | 83 | 0 | 0.0 | 0.0 | 0.00 | 0.00 | 0.00 | 80 | 1015.1 |
| 20260904053558 | 83 | 0 | 0.0 | 0.0 | 0.00 | 0.00 | 0.00 | 80 | 1015.2 |
| 20260904053132 | 83 | 0 | 0.0 | 0.0 | 0.00 | 0.00 | 0.00 | 80 | 1015.2 |
| 20260904052601 | 83 | 0 | 0.0 | 0.0 | 0.00 | 0.00 | 0.00 | 80 | 1015.2 |
| 20260904052059 | 83 | 0 | 0.0 | 0.0 | 0.00 | 0.00 | 0.00 | 81 | 1015.2 |
| 20260904051608 | 83 | 0 | 0.0 | 0.0 | 0.00 | 0.00 | 0.00 | 81 | 1015.2 |
| 20260904051059 | 83 | 0 | 0.0 | 0.0 | 0.00 | 0.00 | 0.00 | 81 | 1015.3 |
| 20260904050604 | 83 | 0 | 0.0 | 0.0 | 0.00 | 0.00 | 0.00 | 80 | 1015.2 |
| 20260904050105 | 83 | 0 | 0.0 | 1.0 | 0.00 | 0.00 | 0.00 | 80 | 1015.3 |
| 20260904045602 | 83 | 0 | 0.0 | 2.0 | 0.00 | 0.01 | 0.00 | 80 | 1015.4 |
| 20260904045100 | 83 | 0 | 0.0 | 2.0 | 0.00 | 0.01 | 0.00 | 80 | 1015.3 |
| 20260904044614 | 83 | 0 | 0.0 | 0.0 | 0.00 | 0.01 | 0.00 | 80 | 1015.4 |
| 20260904044100 | 83 | 0 | 0.0 | 1.0 | 0.00 | 0.01 | 0.00 | 80 | 1015.5 |
| 20260904043559 | 83 | 0 | 0.0 | 1.0 | 0.00 | 0.01 | 0.00 | 79 | 1015.5 |
| 20260904043109 | 83 | 0 | 0.0 | 1.0 | 0.00 | 0.01 | 0.00 | 79 | 1015.4 |
| 20260904042559 | 83 | 0 | 0.0 | 1.0 | 0.00 | 0.01 | 0.00 | 79 | 1015.5 |
| 20260904042059 | 83 | 0 | 0.0 | 0.0 | 0.00 | 0.01 | 0.00 | 79 | 1015.5 |
| 20260904041606 | 83 | 0 | 0.0 | 0.0 | 0.00 | 0.01 | 0.00 | 79 | 1015.5 |
| 20260904041100 | 83 | 0 | 0.0 | 0.0 | 0.00 | 0.01 | 0.00 | 79 | 1015.5 |
| 20260904040600 | 83 | 0 | 0.0 | 4.0 | 0.00 | 0.01 | 0.00 | 79 | 1015.5 |
| 20260904040104 | 83 | 0 | 0.0 | 4.0 | 0.00 | 0.01 | 0.00 | 79 | 1015.6 |
| 20260904035601 | 83 | 0 | 0.0 | 4.0 | 0.00 | 0.01 | 0.01 | 79 | 1015.6 |
| 20260904035059 | 83 | 0 | 0.0 | 0.0 | 0.00 | 0.01 | 0.01 | 79 | 1015.7 |
| 20260904034634 | 83 | 0 | 0.0 | 0.0 | 0.00 | 0.01 | 0.01 | 79 | 1015.8 |
| 20260904034059 | 83 | 0 | 0.0 | 0.0 | 0.00 | 0.01 | 0.01 | 79 | 1015.7 |
| 20260904033603 | 83 | 0 | 0.0 | 0.0 | 0.00 | 0.01 | 0.01 | 79 | 1015.8 |
| 20260904033105 | 83 | 0 | 0.0 | 0.0 | 0.00 | 0.01 | 0.01 | 79 | 1015.8 |
| 20260904032601 | 83 | 0 | 0.0 | 0.0 | 0.00 | 0.01 | 0.01 | 79 | 1015.9 |
| 20260904032103 | 83 | 0 | 0.0 | 0.0 | 0.00 | 0.01 | 0.01 | 78 | 1016.0 |
| 20260904031603 | 83 | 0 | 0.0 | 0.0 | 0.00 | 0.01 | 0.01 | 78 | 1015.9 |
| 20260904031059 | 83 | 0 | 0.0 | 0.0 | 0.00 | 0.01 | 0.01 | 78 | 1015.8 |
| 20260904030604 | 83 | 0 | 0.0 | 0.0 | 0.00 | 0.01 | 0.01 | 78 | 1015.8 |
| 20260904030104 | 83 | 0 | 0.0 | 0.0 | 0.00 | 0.01 | 0.01 | 78 | 1015.9 |
| 20260904025559 | 83 | 0 | 0.0 | 0.0 | 0.00 | 0.05 | 0.01 | 78 | 1015.9 |
| 20260904025059 | 83 | 0 | 0.0 | 0.0 | 0.00 | 0.05 | 0.01 | 78 | 1015.9 |
| 20260904024606 | 83 | 0 | 0.0 | 0.0 | 0.00 | 0.05 | 0.01 | 78 | 1015.9 |
| 20260904024058 | 83 | 0 | 0.0 | 0.0 | 0.00 | 0.05 | 0.01 | 78 | 1015.9 |
| 20260904023559 | 83 | 0 | 0.0 | 0.0 | 0.00 | 0.05 | 0.01 | 78 | 1015.7 |
| 20260904023104 | 83 | 0 | 0.0 | 0.0 | 0.00 | 0.05 | 0.01 | 78 | 1015.7 |
| 20260904022601 | 83 | 0 | 0.0 | 0.0 | 0.00 | 0.05 | 0.01 | 78 | 1015.8 |
| 20260904022101 | 83 | 0 | 0.0 | 0.0 | 0.00 | 0.05 | 0.01 | 78 | 1015.8 |
| 20260904021618 | 83 | 0 | 0.0 | 0.0 | 0.00 | 0.05 | 0.01 | 78 | 1015.6 |
| 20260904021059 | 83 | 0 | 0.0 | 0.0 | 0.00 | 0.05 | 0.01 | 78 | 1015.6 |
| 20260904020559 | 83 | 0 | 0.0 | 0.0 | 0.00 | 0.05 | 0.01 | 78 | 1015.7 |
| 20260904020106 | 83 | 0 | 0.0 | 1.0 | 0.00 | 0.05 | 0.01 | 78 | 1015.7 |
| 20260904015559 | 83 | 0 | 0.0 | 1.0 | 0.00 | 0.30 | 0.01 | 78 | 1015.7 |
| 20260904015059 | 83 | 0 | 0.0 | 1.0 | 0.00 | 0.30 | 0.01 | 78 | 1015.7 |
| 20260904014611 | 83 | 0 | 0.0 | 1.0 | 0.00 | 0.30 | 0.01 | 78 | 1015.7 |
| 20260904014101 | 83 | 0 | 0.0 | 3.0 | 0.00 | 0.30 | 0.01 | 78 | 1015.7 |
| 20260904013601 | 83 | 0 | 0.0 | 3.0 | 0.00 | 0.30 | 0.01 | 78 | 1015.6 |
| 20260904013125 | 83 | 192 | 0.0 | 3.0 | 0.00 | 0.30 | 0.01 | 78 | 1015.5 |
| 20260904012558 | 83 | 0 | 0.0 | 0.0 | 0.00 | 0.30 | 0.01 | 78 | 1015.4 |
| 20260904012058 | 83 | 0 | 0.0 | 0.0 | 0.00 | 0.30 | 0.01 | 78 | 1015.3 |
| 20260904011647 | 83 | 0 | 0.0 | 0.0 | 0.00 | 0.30 | 0.01 | 78 | 1015.3 |
| 20260904011101 | 82 | 0 | 0.0 | 0.0 | 0.00 | 0.30 | 0.01 | 78 | 1015.3 |
| 20260904010601 | 83 | 0 | 0.0 | 0.0 | 0.00 | 0.30 | 0.01 | 78 | 1015.3 |
| 20260904010108 | 82 | 0 | 0.0 | 0.0 | 0.00 | 0.30 | 0.01 | 78 | 1015.3 |
| 20260904005602 | 83 | 0 | 0.0 | 0.0 | 0.00 | 0.30 | 0.01 | 77 | 1015.2 |
| 20260904005101 | 83 | 0 | 0.0 | 0.0 | 0.00 | 0.30 | 0.01 | 77 | 1015.2 |
| 20260904004603 | 83 | 0 | 0.0 | 0.0 | 0.00 | 0.30 | 0.01 | 77 | 1015.1 |
| 20260904004101 | 83 | 0 | 0.0 | 0.0 | 0.00 | 0.30 | 0.01 | 76 | 1015.2 |
| 20260904003600 | 83 | 0 | 0.0 | 0.0 | 0.00 | 0.30 | 0.01 | 76 | 1015.1 |
| 20260904003101 | 83 | 0 | 0.0 | 0.0 | 0.00 | 0.30 | 0.01 | 76 | 1015.2 |
| 20260904002557 | 83 | 0 | 0.0 | 0.0 | 0.00 | 0.30 | 0.01 | 75 | 1015.2 |
| 20260904002100 | 83 | 0 | 0.0 | 0.0 | 0.00 | 0.30 | 0.01 | 75 | 1015.2 |
| 20260904001609 | 83 | 0 | 0.0 | 0.0 | 0.00 | 0.30 | 0.01 | 75 | 1015.2 |
| 20260904001057 | 83 | 0 | 0.0 | 0.0 | 0.00 | 0.30 | 0.01 | 74 | 1015.2 |
| 20260904000601 | 83 | 0 | 0.0 | 0.0 | 0.00 | 0.30 | 0.01 | 74 | 1015.0 |
| 20260904000109 | 83 | 0 | 0.0 | 0.0 | 0.00 | 0.30 | 0.01 | 74 | 1014.8 |
| 20260903235600 | 83 | 0 | 0.0 | 0.0 | 0.00 | 0.30 | 0.01 | 74 | 1014.9 |
| 20260903235101 | 84 | 0 | 0.0 | 0.0 | 0.00 | 0.30 | 0.01 | 73 | 1015.0 |
| 20260903234604 | 84 | 0 | 0.0 | 0.0 | 0.00 | 0.30 | 0.01 | 73 | 1014.9 |
| 20260903234102 | 84 | 0 | 0.0 | 0.0 | 0.00 | 0.30 | 0.01 | 73 | 1014.8 |
| 20260903233559 | 84 | 0 | 0.0 | 0.0 | 0.00 | 0.30 | 0.01 | 73 | 1014.8 |
| 20260903233107 | 84 | 0 | 0.0 | 0.0 | 0.00 | 0.30 | 0.01 | 72 | 1014.9 |
| 20260903232559 | 84 | 0 | 0.0 | 0.0 | 0.00 | 0.30 | 0.01 | 72 | 1014.9 |
| 20260903232101 | 84 | 0 | 0.0 | 0.0 | 0.00 | 0.30 | 0.01 | 72 | 1014.9 |
| 20260903231607 | 85 | 0 | 0.0 | 2.0 | 0.00 | 0.30 | 0.01 | 72 | 1015.0 |
| 20260903231100 | 85 | 0 | 0.0 | 3.0 | 0.00 | 0.30 | 0.01 | 72 | 1014.9 |
| 20260903230604 | 85 | 0 | 0.0 | 3.0 | 0.00 | 0.30 | 0.01 | 72 | 1015.0 |
| 20260903230111 | 86 | 0 | 0.0 | 3.0 | 0.00 | 0.30 | 0.01 | 72 | 1014.9 |
| 20260903225601 | 86 | 0 | 0.0 | 2.0 | 0.00 | 0.30 | 0.01 | 72 | 1014.9 |
| 20260903225059 | 86 | 0 | 0.0 | 2.0 | 0.00 | 0.30 | 0.01 | 72 | 1014.9 |
| 20260903224607 | 86 | 0 | 0.0 | 2.0 | 0.00 | 0.30 | 0.01 | 71 | 1014.9 |
| 20260903224058 | 86 | 0 | 0.0 | 1.0 | 0.00 | 0.30 | 0.01 | 71 | 1014.6 |
| 20260903223558 | 87 | 0 | 0.0 | 2.0 | 0.00 | 0.30 | 0.01 | 71 | 1014.5 |
| 20260903223108 | 87 | 0 | 0.0 | 3.0 | 0.00 | 0.30 | 0.01 | 71 | 1014.5 |
| 20260903222605 | 87 | 0 | 0.0 | 3.0 | 0.00 | 0.30 | 0.01 | 70 | 1014.4 |
| 20260903222059 | 87 | 258 | 0.0 | 4.0 | 0.00 | 0.30 | 0.01 | 70 | 1014.3 |
| 20260903221604 | 87 | 0 | 0.0 | 4.0 | 0.00 | 0.30 | 0.01 | 69 | 1014.2 |
| 20260903221058 | 88 | 284 | 0.0 | 4.0 | 0.00 | 0.30 | 0.01 | 69 | 1014.3 |
| 20260903220601 | 88 | 0 | 0.0 | 6.0 | 0.00 | 0.30 | 0.01 | 69 | 1014.3 |
| 20260903220104 | 89 | 222 | 2.0 | 8.0 | 0.00 | 0.30 | 0.01 | 68 | 1014.4 |
| 20260903215559 | 90 | 0 | 1.0 | 8.0 | 0.00 | 0.30 | 0.01 | 67 | 1014.2 |
| 20260903215059 | 91 | 0 | 0.0 | 8.0 | 0.00 | 0.30 | 0.01 | 66 | 1014.1 |
| 20260903214610 | 92 | 238 | 1.0 | 4.0 | 0.00 | 0.30 | 0.01 | 65 | 1014.1 |
| 20260903214102 | 93 | 0 | 0.0 | 4.0 | 0.00 | 0.30 | 0.01 | 64 | 1013.9 |
| 20260903213558 | 93 | 167 | 0.0 | 8.0 | 0.00 | 0.30 | 0.01 | 63 | 1014.1 |
| 20260903213119 | 94 | 162 | 1.0 | 8.0 | 0.00 | 0.30 | 0.01 | 62 | 1014.0 |
| 20260903212601 | 94 | 109 | 1.0 | 7.0 | 0.00 | 0.30 | 0.01 | 61 | 1014.1 |
| 20260903212059 | 94 | 0 | 1.0 | 7.0 | 0.00 | 0.30 | 0.01 | 60 | 1014.0 |
| 20260903211621 | 94 | 0 | 0.0 | 4.0 | 0.00 | 0.30 | 0.01 | 59 | 1014.0 |
| 20260903211059 | 94 | 0 | 0.0 | 4.0 | 0.00 | 0.30 | 0.01 | 58 | 1014.0 |
| 20260903210600 | 94 | 0 | 0.0 | 4.0 | 0.00 | 0.30 | 0.01 | 60 | 1013.8 |
| 20260903210142 | 93 | 255 | 0.0 | 2.0 | 0.00 | 0.30 | 0.01 | 61 | 1013.7 |
| 20260903205602 | 92 | 0 | 0.0 | 3.0 | 0.00 | 0.30 | 0.01 | 60 | 1013.5 |
| 20260903205059 | 91 | 0 | 0.0 | 3.0 | 0.00 | 0.30 | 0.01 | 62 | 1013.6 |
| 20260903204621 | 90 | 265 | 0.0 | 3.0 | 0.00 | 0.30 | 0.01 | 63 | 1013.8 |
| 20260903204058 | 89 | 0 | 0.0 | 2.0 | 0.00 | 0.30 | 0.01 | 63 | 1013.8 |
| 20260903203558 | 89 | 0 | 0.0 | 2.0 | 0.00 | 0.30 | 0.01 | 64 | 1013.8 |
| 20260903203117 | 89 | 0 | 0.0 | 0.0 | 0.00 | 0.30 | 0.01 | 63 | 1013.7 |
| 20260903202559 | 89 | 0 | 0.0 | 0.0 | 0.00 | 0.30 | 0.01 | 62 | 1013.6 |
| 20260903202059 | 90 | 0 | 0.0 | 0.0 | 0.00 | 0.30 | 0.01 | 62 | 1013.6 |
| 20260903201623 | 90 | 0 | 0.0 | 0.0 | 0.00 | 0.30 | 0.01 | 62 | 1013.8 |
| 20260903201058 | 90 | 0 | 0.0 | 3.0 | 0.00 | 0.30 | 0.01 | 62 | 1013.7 |
| 20260903200558 | 89 | 0 | 0.0 | 4.0 | 0.00 | 0.30 | 0.01 | 64 | 1013.8 |
| 20260903200121 | 88 | 249 | 0.0 | 7.0 | 0.00 | 0.30 | 0.01 | 64 | 1013.8 |
| 20260903195559 | 87 | 0 | 1.0 | 7.0 | 0.00 | 0.30 | 0.01 | 65 | 1013.9 |
| 20260903195058 | 86 | 229 | 3.0 | 8.0 | 0.00 | 0.30 | 0.01 | 66 | 1014.0 |
| 20260903194609 | 86 | 257 | 3.0 | 8.0 | 0.00 | 0.30 | 0.01 | 66 | 1014.2 |
| 20260903194058 | 85 | 259 | 1.0 | 13.0 | 0.00 | 0.30 | 0.01 | 67 | 1014.3 |
| 20260903193558 | 86 | 273 | 4.0 | 13.0 | 0.00 | 0.30 | 0.01 | 65 | 1014.4 |
| 20260903193114 | 87 | 247 | 3.0 | 14.0 | 0.00 | 0.30 | 0.01 | 65 | 1014.6 |
| 20260903192602 | 88 | 243 | 3.0 | 14.0 | 0.00 | 0.30 | 0.01 | 64 | 1014.6 |
| 20260903192058 | 90 | 316 | 5.0 | 14.0 | 0.00 | 0.30 | 0.01 | 65 | 1014.5 |
| 20260903191606 | 91 | 245 | 2.0 | 8.0 | 0.00 | 0.30 | 0.01 | 63 | 1014.5 |
| 20260903191100 | 93 | 0 | 0.0 | 8.0 | 0.00 | 0.30 | 0.01 | 64 | 1014.2 |
| 20260903190600 | 94 | 89 | 1.0 | 7.0 | 0.00 | 0.30 | 0.01 | 62 | 1014.1 |
| 20260903190113 | 96 | 101 | 0.0 | 6.0 | 0.00 | 0.30 | 0.01 | 61 | 1014.4 |
| 20260903185602 | 96 | 180 | 1.0 | 6.0 | 0.00 | 0.30 | 0.01 | 63 | 1014.4 |
| 20260903185059 | 95 | 269 | 2.0 | 9.0 | 0.00 | 0.30 | 0.01 | 63 | 1014.2 |
| 20260903184609 | 95 | 0 | 2.0 | 10.0 | 0.00 | 0.30 | 0.01 | 62 | 1014.3 |
| 20260903184102 | 95 | 306 | 2.0 | 10.0 | 0.00 | 0.30 | 0.01 | 61 | 1014.3 |
| 20260903183600 | 96 | 100 | 2.0 | 8.0 | 0.00 | 0.30 | 0.01 | 62 | 1014.2 |
| 20260903183102 | 96 | 64 | 3.0 | 8.0 | 0.00 | 0.30 | 0.01 | 62 | 1014.2 |
| 20260903182559 | 96 | 110 | 2.0 | 10.0 | 0.00 | 0.30 | 0.01 | 62 | 1014.2 |
| 20260903182103 | 96 | 129 | 1.0 | 11.0 | 0.00 | 0.30 | 0.01 | 62 | 1014.3 |
| 20260903181608 | 95 | 0 | 2.0 | 11.0 | 0.00 | 0.30 | 0.01 | 63 | 1014.3 |
| 20260903181059 | 95 | 309 | 1.0 | 11.0 | 0.00 | 0.30 | 0.01 | 62 | 1014.3 |
| 20260903180603 | 95 | 0 | 1.0 | 10.0 | 0.00 | 0.30 | 0.01 | 63 | 1014.2 |
| 20260903180112 | 95 | 236 | 2.0 | 11.0 | 0.00 | 0.30 | 0.01 | 63 | 1014.3 |
| 20260903175558 | 95 | 111 | 1.0 | 11.0 | 0.00 | 1.35 | 0.01 | 62 | 1014.2 |
| 20260903175059 | 95 | 154 | 2.0 | 9.0 | 0.00 | 1.35 | 0.01 | 62 | 1014.3 |
| 20260903174603 | 95 | 118 | 2.0 | 11.0 | 0.00 | 1.35 | 0.01 | 62 | 1014.5 |
| 20260903174059 | 96 | 108 | 1.0 | 11.0 | 0.00 | 1.35 | 0.01 | 63 | 1014.5 |
| 20260903173559 | 96 | 111 | 3.0 | 10.0 | 0.00 | 1.35 | 0.01 | 61 | 1014.7 |
| 20260903173101 | 96 | 232 | 1.0 | 10.0 | 0.00 | 1.35 | 0.01 | 62 | 1014.9 |
| 20260903172559 | 96 | 100 | 1.0 | 10.0 | 0.00 | 1.35 | 0.01 | 61 | 1014.8 |
| 20260903172101 | 95 | 224 | 0.0 | 10.0 | 0.00 | 1.35 | 0.01 | 62 | 1014.8 |
| 20260903171614 | 95 | 153 | 2.0 | 10.0 | 0.00 | 1.35 | 0.01 | 60 | 1014.7 |
| 20260903171059 | 96 | 111 | 1.0 | 5.0 | 0.00 | 1.35 | 0.01 | 60 | 1014.9 |
| 20260903170601 | 96 | 81 | 1.0 | 5.0 | 0.00 | 1.35 | 0.01 | 61 | 1015.1 |
| 20260903170106 | 96 | 128 | 1.0 | 7.0 | 0.00 | 1.35 | 0.01 | 61 | 1015.2 |
| 20260903165600 | 96 | 325 | 1.0 | 7.0 | 0.00 | 1.35 | 0.01 | 61 | 1015.3 |
| 20260903165059 | 96 | 270 | 1.0 | 9.0 | 0.00 | 1.35 | 0.01 | 60 | 1015.3 |
| 20260903164602 | 95 | 0 | 1.0 | 9.0 | 0.00 | 1.35 | 0.01 | 61 | 1015.5 |
| 20260903164101 | 95 | 205 | 2.0 | 7.0 | 0.00 | 1.35 | 0.01 | 61 | 1015.4 |
| 20260903163603 | 95 | 0 | 2.0 | 6.0 | 0.00 | 1.35 | 0.01 | 62 | 1015.6 |
| 20260903163102 | 96 | 34 | 0.0 | 7.0 | 0.00 | 1.35 | 0.01 | 61 | 1015.5 |
| 20260903162559 | 95 | 250 | 1.0 | 7.0 | 0.00 | 1.35 | 0.01 | 62 | 1015.5 |
| 20260903162059 | 95 | 303 | 1.0 | 4.0 | 0.00 | 1.35 | 0.01 | 63 | 1015.4 |
| 20260903161612 | 95 | 0 | 0.0 | 4.0 | 0.00 | 1.35 | 0.01 | 61 | 1015.4 |
| 20260903161059 | 95 | 213 | 0.0 | 4.0 | 0.00 | 1.35 | 0.01 | 62 | 1015.5 |
| 20260903160558 | 94 | 0 | 1.0 | 4.0 | 0.00 | 1.35 | 0.01 | 64 | 1015.5 |
| 20260903160105 | 93 | 0 | 0.0 | 4.0 | 0.00 | 1.35 | 0.01 | 64 | 1015.6 |
| 20260903155559 | 93 | 231 | 0.0 | 4.0 | 0.00 | 1.35 | 0.01 | 65 | 1015.7 |
| 20260903155059 | 93 | 0 | 0.0 | 4.0 | 0.00 | 1.35 | 0.01 | 64 | 1015.8 |
| 20260903154609 | 93 | 0 | 0.0 | 9.0 | 0.00 | 1.35 | 0.01 | 65 | 1016.0 |
| 20260903154059 | 93 | 177 | 1.0 | 9.0 | 0.00 | 1.35 | 0.01 | 65 | 1016.0 |
| 20260903153558 | 93 | 101 | 2.0 | 9.0 | 0.00 | 1.35 | 0.01 | 64 | 1016.0 |
| 20260903153109 | 93 | 240 | 0.0 | 5.0 | 0.00 | 1.35 | 0.01 | 65 | 1015.9 |
| 20260903152559 | 93 | 108 | 0.0 | 5.0 | 0.00 | 1.35 | 0.01 | 66 | 1016.0 |
| 20260903152058 | 92 | 204 | 0.0 | 5.0 | 0.00 | 1.35 | 0.01 | 66 | 1015.9 |
| 20260903151612 | 92 | 0 | 0.0 | 5.0 | 0.00 | 1.35 | 0.01 | 67 | 1015.8 |
| 20260903151058 | 91 | 235 | 0.0 | 4.0 | 0.00 | 1.35 | 0.01 | 68 | 1015.9 |
| 20260903150558 | 91 | 0 | 1.0 | 9.0 | 0.00 | 1.35 | 0.01 | 68 | 1015.8 |
| 20260903150120 | 90 | 225 | 1.0 | 9.0 | 0.00 | 1.35 | 0.01 | 69 | 1015.8 |
| 20260903145601 | 90 | 96 | 1.0 | 8.0 | 0.00 | 1.35 | 0.01 | 70 | 1015.9 |
| 20260903145101 | 90 | 0 | 0.0 | 8.0 | 0.00 | 1.35 | 0.01 | 71 | 1015.8 |
| 20260903144617 | 89 | 109 | 0.0 | 8.0 | 0.00 | 1.35 | 0.01 | 71 | 1015.9 |
| 20260903144100 | 89 | 103 | 0.0 | 4.0 | 0.00 | 1.35 | 0.01 | 73 | 1015.9 |
| 20260903143558 | 89 | 82 | 0.0 | 3.0 | 0.00 | 1.35 | 0.01 | 74 | 1015.8 |
| 20260903143121 | 88 | 0 | 0.0 | 3.0 | 0.00 | 1.35 | 0.01 | 77 | 1015.7 |
| 20260903142559 | 88 | 0 | 0.0 | 4.0 | 0.00 | 1.35 | 0.01 | 78 | 1015.7 |
| 20260903142059 | 87 | 0 | 0.0 | 4.0 | 0.00 | 1.35 | 0.01 | 80 | 1015.6 |
| 20260903141601 | 86 | 0 | 0.0 | 3.0 | 0.00 | 1.35 | 0.01 | 82 | 1015.7 |
| 20260903141058 | 86 | 0 | 0.0 | 3.0 | 0.00 | 1.35 | 0.01 | 84 | 1015.6 |
| 20260903140559 | 85 | 0 | 0.0 | 2.0 | 0.00 | 1.35 | 0.01 | 86 | 1015.7 |
| 20260903140113 | 85 | 0 | 0.0 | 2.0 | 0.00 | 1.35 | 0.01 | 87 | 1015.7 |
| 20260903135558 | 84 | 0 | 0.0 | 2.0 | 0.00 | 1.35 | 0.01 | 88 | 1015.8 |
| 20260903135058 | 84 | 0 | 0.0 | 2.0 | 0.00 | 1.35 | 0.01 | 89 | 1015.7 |
| 20260903134607 | 84 | 0 | 0.0 | 4.0 | 0.00 | 1.35 | 0.01 | 89 | 1015.5 |
| 20260903134058 | 83 | 0 | 0.0 | 4.0 | 0.00 | 1.35 | 0.01 | 89 | 1015.5 |
| 20260903133604 | 83 | 0 | 0.0 | 0.0 | 0.00 | 1.35 | 0.01 | 89 | 1015.5 |
| 20260903133118 | 83 | 0 | 0.0 | 0.0 | 0.00 | 1.35 | 0.01 | 90 | 1015.4 |
| 20260903132559 | 83 | 0 | 0.0 | 0.0 | 0.00 | 1.35 | 0.01 | 90 | 1015.4 |
| 20260903132100 | 83 | 0 | 0.0 | 0.0 | 0.00 | 1.35 | 0.01 | 90 | 1015.5 |
| 20260903131612 | 82 | 0 | 0.0 | 0.0 | 0.00 | 1.35 | 0.01 | 90 | 1015.4 |
| 20260903131101 | 83 | 0 | 0.0 | 0.0 | 0.00 | 1.35 | 0.01 | 90 | 1015.5 |
| 20260903130558 | 82 | 0 | 0.0 | 0.0 | 0.00 | 1.35 | 0.01 | 90 | 1015.4 |
| 20260903125559 | 82 | 0 | 0.0 | 0.0 | 0.00 | 1.35 | 0.01 | 90 | 1015.5 |
| 20260903125058 | 82 | 0 | 0.0 | 0.0 | 0.00 | 1.35 | 0.01 | 90 | 1015.6 |
| 20260903124615 | 82 | 0 | 0.0 | 0.0 | 0.00 | 1.35 | 0.01 | 90 | 1015.6 |
| 20260903124058 | 82 | 0 | 0.0 | 0.0 | 0.00 | 1.35 | 0.01 | 90 | 1015.6 |
| 20260903123606 | 81 | 0 | 0.0 | 0.0 | 0.00 | 1.35 | 0.01 | 91 | 1015.6 |
| 20260903123104 | 81 | 0 | 0.0 | 0.0 | 0.00 | 1.35 | 0.01 | 90 | 1015.6 |
| 20260903122559 | 80 | 0 | 0.0 | 0.0 | 0.00 | 1.35 | 0.01 | 90 | 1015.6 |
| 20260903122101 | 80 | 0 | 0.0 | 0.0 | 0.00 | 1.35 | 0.01 | 90 | 1015.5 |
| 20260903121603 | 79 | 0 | 0.0 | 0.0 | 0.00 | 1.35 | 0.01 | 90 | 1015.5 |
| 20260903121059 | 79 | 0 | 0.0 | 0.0 | 0.00 | 1.35 | 0.01 | 90 | 1015.4 |
| 20260903120603 | 79 | 0 | 0.0 | 0.0 | 0.00 | 1.35 | 0.01 | 90 | 1015.4 |
| 20260903120106 | 78 | 0 | 0.0 | 0.0 | 0.00 | 1.35 | 0.01 | 90 | 1015.4 |
| 20260903115558 | 78 | 0 | 0.0 | 0.0 | 0.00 | 1.35 | 0.01 | 90 | 1015.4 |
| 20260903115059 | 77 | 0 | 0.0 | 0.0 | 0.00 | 1.35 | 0.01 | 90 | 1015.3 |
| 20260903114607 | 77 | 0 | 0.0 | 0.0 | 0.00 | 1.35 | 0.01 | 90 | 1015.1 |
| 20260903114057 | 77 | 0 | 0.0 | 0.0 | 0.00 | 1.35 | 0.01 | 90 | 1015.1 |
| 20260903113601 | 77 | 0 | 0.0 | 0.0 | 0.00 | 1.35 | 0.01 | 90 | 1015.1 |
| 20260903113108 | 77 | 0 | 0.0 | 0.0 | 0.00 | 1.35 | 0.01 | 90 | 1015.1 |
| 20260903112601 | 77 | 0 | 0.0 | 0.0 | 0.00 | 1.35 | 0.01 | 90 | 1015.0 |
| 20260903112057 | 77 | 0 | 0.0 | 0.0 | 0.00 | 1.35 | 0.01 | 90 | 1015.0 |
| 20260903111602 | 76 | 0 | 0.0 | 0.0 | 0.00 | 1.35 | 0.01 | 89 | 1014.9 |
| 20260903111058 | 76 | 0 | 0.0 | 0.0 | 0.00 | 1.35 | 0.01 | 89 | 1014.9 |
| 20260903110559 | 76 | 0 | 0.0 | 0.0 | 0.00 | 1.35 | 0.01 | 89 | 1014.5 |
| 20260903110105 | 76 | 0 | 0.0 | 0.0 | 0.00 | 1.35 | 0.01 | 89 | 1014.4 |
| 20260903105600 | 77 | 0 | 0.0 | 0.0 | 0.00 | 1.35 | 0.01 | 89 | 1014.4 |
| 20260903105101 | 77 | 0 | 0.0 | 0.0 | 0.00 | 1.35 | 0.01 | 89 | 1014.3 |
| 20260903104603 | 77 | 0 | 0.0 | 0.0 | 0.00 | 1.35 | 0.01 | 89 | 1014.2 |
| 20260903104100 | 77 | 0 | 0.0 | 0.0 | 0.00 | 1.35 | 0.01 | 89 | 1014.1 |
| 20260903103558 | 77 | 0 | 0.0 | 0.0 | 0.00 | 1.35 | 0.01 | 89 | 1014.0 |
| 20260903103104 | 77 | 0 | 0.0 | 0.0 | 0.00 | 1.35 | 0.01 | 89 | 1014.0 |
| 20260903102559 | 77 | 0 | 0.0 | 0.0 | 0.00 | 1.35 | 0.01 | 89 | 1013.9 |
| 20260903102059 | 77 | 0 | 0.0 | 0.0 | 0.00 | 1.35 | 0.01 | 89 | 1013.8 |
| 20260903101608 | 77 | 0 | 0.0 | 0.0 | 0.00 | 1.35 | 0.01 | 89 | 1013.9 |
| 20260903101059 | 77 | 0 | 0.0 | 0.0 | 0.00 | 1.35 | 0.01 | 89 | 1013.9 |
| 20260903100558 | 77 | 0 | 0.0 | 0.0 | 0.00 | 1.35 | 0.01 | 89 | 1013.9 |
| 20260903095600 | 77 | 0 | 0.0 | 0.0 | 0.00 | 1.35 | 0.01 | 89 | 1013.7 |
| 20260903095059 | 77 | 0 | 0.0 | 0.0 | 0.00 | 1.35 | 0.01 | 89 | 1013.6 |
| 20260903094652 | 77 | 0 | 0.0 | 0.0 | 0.00 | 1.35 | 0.01 | 89 | 1013.7 |
| 20260903094059 | 77 | 0 | 0.0 | 0.0 | 0.00 | 1.35 | 0.01 | 89 | 1013.7 |